When you browse on this site, cookies collect data to enhance your experience and personalize the content and advertising you see.
Visit our Privacy Policy to learn more. By continuing to use the site, you agree to this use of cookies and data.
  • In Latvia
  • List of Countries
  • For 7 days
  • Water Temperature
  • Satellite Maps
  • Weather Map
  • Weather Widgets
  • user-avatar
    Login

    Hourly Weather Krizhopol

    Today, 20 February, Wednesday

    Time Temperature Precipitation Wind Pressure Humidity
    00:00 0°C° 0 mm 4 mps 737 mmHg 90%
    01:00 0°C° 0 mm 4 mps 737 mmHg 92%
    02:00 0°C° 0 mm 3 mps 736 mmHg 94%
    03:00 0°C° 0 mm 3 mps 736 mmHg 95%
    04:00 -1°C° 0 mm 3 mps 736 mmHg 96%
    05:00 -1°C° 0 mm 3 mps 735 mmHg 97%
    06:00 0°C° 0 mm 3 mps 735 mmHg 97%
    07:00 +1°C° 0 mm 2 mps 735 mmHg 97%
    08:00 +1°C° 0 mm 2 mps 735 mmHg 96%
    09:00 +2°C° 0 mm 3 mps 735 mmHg 89%
    10:00 +3°C° 0 mm 4 mps 735 mmHg 82%
    11:00 +5°C° 0 mm 4 mps 736 mmHg 74%
    12:00 +6°C° 0 mm 5 mps 736 mmHg 72%
    13:00 +7°C° 0 mm 5 mps 736 mmHg 70%
    14:00 +7°C° 0 mm 6 mps 736 mmHg 67%
    15:00 +6°C° 0 mm 5 mps 736 mmHg 68%
    16:00 +5°C° 0 mm 5 mps 736 mmHg 68%
    17:00 +5°C° 0 mm 5 mps 736 mmHg 69%
    18:00 +4°C° 0 mm 4 mps 737 mmHg 73%
    19:00 +3°C° 0 mm 4 mps 737 mmHg 77%
    20:00 +2°C° 0 mm 3 mps 737 mmHg 81%
    21:00 +1°C° 0 mm 4 mps 737 mmHg 82%
    22:00 +1°C° 0 mm 4 mps 737 mmHg 83%
    23:00 0°C° 0 mm 4 mps 738 mmHg 84%

    Tomorrow, 21 February, Thursday

    Time Temperature Precipitation Wind Pressure Humidity
    00:00 0°C° 0 mm 5 mps 738 mmHg 84%
    01:00 0°C° 0 mm 5 mps 737 mmHg 84%
    02:00 0°C° 0 mm 5 mps 737 mmHg 83%
    03:00 0°C° 0 mm 5 mps 737 mmHg 84%
    04:00 -2°C° 0 mm 6 mps 737 mmHg 85%
    05:00 -2°C° 0 mm 6 mps 738 mmHg 85%
    06:00 -2°C° 0 mm 6 mps 738 mmHg 85%
    07:00 -2°C° 0 mm 6 mps 738 mmHg 84%
    08:00 -2°C° 0 mm 6 mps 738 mmHg 84%
    09:00 -1°C° 0 mm 7 mps 739 mmHg 76%
    10:00 0°C° 0 mm 7 mps 739 mmHg 68%
    11:00 0°C° 0 mm 8 mps 739 mmHg 60%
    12:00 +1°C° 0 mm 8 mps 739 mmHg 57%
    13:00 +2°C° 0 mm 8 mps 739 mmHg 54%
    14:00 +2°C° 0 mm 8 mps 739 mmHg 52%
    15:00 +3°C° 0 mm 7 mps 739 mmHg 56%
    16:00 +2°C° 0 mm 7 mps 739 mmHg 61%
    17:00 +2°C° 0 mm 6 mps 739 mmHg 65%
    18:00 +1°C° 0 mm 5 mps 739 mmHg 69%
    19:00 +1°C° 0 mm 4 mps 739 mmHg 74%
    20:00 +1°C° 0 mm 3 mps 739 mmHg 78%
    21:00 +1°C° 0 mm 3 mps 739 mmHg 82%
    22:00 +2°C° 0 mm 2 mps 739 mmHg 86%
    23:00 +2°C° 0 mm 2 mps 739 mmHg 90%

    Day after tomorrow, 22 February, Friday

    Time Temperature Precipitation Wind Pressure Humidity
    00:00 +2°C° 0.4 mm 2 mps 739 mmHg 91%
    01:00 +3°C° 0.4 mm 1 mps 739 mmHg 93%
    02:00 +3°C° 0.4 mm 1 mps 738 mmHg 95%
    03:00 +2°C° 1 mm 2 mps 738 mmHg 94%
    04:00 +2°C° 1 mm 2 mps 737 mmHg 93%
    05:00 +2°C° 1 mm 2 mps 737 mmHg 91%
    06:00 0°C° 1.2 mm 3 mps 736 mmHg 92%
    07:00 0°C° 1.2 mm 3 mps 736 mmHg 93%
    08:00 -2°C° 1.2 mm 4 mps 736 mmHg 94%
    09:00 -4°C° 0.7 mm 5 mps 736 mmHg 93%
    10:00 -5°C° 0.7 mm 6 mps 737 mmHg 91%
    11:00 -7°C° 0.7 mm 7 mps 737 mmHg 90%
    12:00 -7°C° 0.4 mm 7 mps 738 mmHg 88%
    13:00 -7°C° 0.4 mm 7 mps 738 mmHg 86%
    14:00 -8°C° 0.4 mm 7 mps 739 mmHg 84%
    15:00 -8°C° 0.1 mm 7 mps 740 mmHg 79%
    16:00 -9°C° 0.1 mm 7 mps 741 mmHg 73%
    17:00 -9°C° 0.1 mm 7 mps 742 mmHg 68%
    18:00 -11°C° 0 mm 7 mps 742 mmHg 69%
    19:00 -11°C° 0 mm 6 mps 743 mmHg 70%
    20:00 -11°C° 0 mm 6 mps 743 mmHg 72%
    21:00 -12°C° 0 mm 6 mps 744 mmHg 73%
    22:00 -12°C° 0 mm 6 mps 744 mmHg 74%
    23:00 -12°C° 0 mm 6 mps 744 mmHg 75%

    23 February, Saturday

    Time Temperature Precipitation Wind Pressure Humidity
    00:00 -12°C° 0 mm 6 mps 745 mmHg 75%
    01:00 -12°C° 0 mm 6 mps 745 mmHg 75%
    02:00 -12°C° 0 mm 6 mps 745 mmHg 75%
    03:00 -12°C° 0 mm 6 mps 745 mmHg 75%
    04:00 -12°C° 0 mm 6 mps 746 mmHg 74%
    05:00 -12°C° 0 mm 6 mps 746 mmHg 74%
    06:00 -14°C° 0 mm 6 mps 746 mmHg 74%
    07:00 -14°C° 0 mm 6 mps 747 mmHg 74%
    08:00 -14°C° 0 mm 6 mps 747 mmHg 74%
    09:00 -12°C° 0 mm 6 mps 748 mmHg 73%
    10:00 -13°C° 0 mm 7 mps 748 mmHg 71%
    11:00 -12°C° 0 mm 7 mps 748 mmHg 70%
    12:00 -12°C° 0 mm 7 mps 748 mmHg 70%
    13:00 -12°C° 0 mm 7 mps 748 mmHg 69%
    14:00 -11°C° 0 mm 7 mps 749 mmHg 69%
    15:00 -10°C° 0 mm 6 mps 749 mmHg 70%
    16:00 -10°C° 0 mm 6 mps 749 mmHg 71%
    17:00 -10°C° 0 mm 5 mps 749 mmHg 71%
    18:00 -11°C° 0 mm 5 mps 749 mmHg 73%
    19:00 -10°C° 0 mm 4 mps 749 mmHg 75%
    20:00 -11°C° 0 mm 4 mps 750 mmHg 76%
    21:00 -11°C° 0 mm 4 mps 750 mmHg 77%
    22:00 -11°C° 0 mm 4 mps 750 mmHg 77%
    23:00 -11°C° 0 mm 4 mps 750 mmHg 77%

    24 February, Sunday

    Time Temperature Precipitation Wind Pressure Humidity
    00:00 -12°C° 0 mm 4 mps 750 mmHg 78%
    01:00 -12°C° 0 mm 3 mps 750 mmHg 79%
    02:00 -12°C° 0 mm 3 mps 749 mmHg 80%
    03:00 -12°C° 0 mm 3 mps 749 mmHg 81%
    04:00 -12°C° 0 mm 3 mps 749 mmHg 82%
    05:00 -12°C° 0 mm 3 mps 749 mmHg 84%
    06:00 -12°C° 0 mm 3 mps 749 mmHg 83%
    07:00 -12°C° 0 mm 3 mps 749 mmHg 82%
    08:00 -12°C° 0 mm 3 mps 749 mmHg 82%
    09:00 -11°C° 0 mm 4 mps 749 mmHg 76%
    10:00 -10°C° 0 mm 4 mps 749 mmHg 71%
    11:00 -8°C° 0 mm 4 mps 749 mmHg 66%
    12:00 -8°C° 0 mm 4 mps 749 mmHg 63%
    13:00 -7°C° 0 mm 4 mps 748 mmHg 60%
    14:00 -5°C° 0 mm 4 mps 748 mmHg 57%
    15:00 -5°C° 0 mm 4 mps 747 mmHg 60%
    16:00 -5°C° 0 mm 3 mps 747 mmHg 62%
    17:00 -5°C° 0 mm 3 mps 746 mmHg 64%
    18:00 -5°C° 0 mm 3 mps 746 mmHg 66%
    19:00 -5°C° 0 mm 3 mps 746 mmHg 67%
    20:00 -5°C° 0 mm 3 mps 746 mmHg 68%
    21:00 -5°C° 0 mm 3 mps 745 mmHg 72%
    22:00 -5°C° 0 mm 3 mps 745 mmHg 76%
    23:00 -4°C° 0 mm 3 mps 744 mmHg 79%

    25 February, Monday

    Time Temperature Precipitation Wind Pressure Humidity
    00:00 -4°C° 0 mm 3 mps 744 mmHg 78%
    01:00 -4°C° 0 mm 3 mps 743 mmHg 77%
    02:00 -4°C° 0 mm 3 mps 742 mmHg 76%
    03:00 -4°C° 0 mm 3 mps 742 mmHg 76%
    04:00 -4°C° 0 mm 3 mps 741 mmHg 77%
    05:00 -4°C° 0 mm 3 mps 740 mmHg 77%
    06:00 -4°C° 0 mm 3 mps 739 mmHg 80%
    07:00 -4°C° 0 mm 3 mps 739 mmHg 83%
    08:00 -3°C° 0 mm 2 mps 738 mmHg 85%
    09:00 -3°C° 0.6 mm 2 mps 738 mmHg 89%
    10:00 -2°C° 0.6 mm 2 mps 737 mmHg 92%
    11:00 -2°C° 0.6 mm 2 mps 737 mmHg 95%
    12:00 -1°C° 0.6 mm 3 mps 736 mmHg 95%
    13:00 -1°C° 0.6 mm 3 mps 736 mmHg 95%
    14:00 -1°C° 0.6 mm 4 mps 736 mmHg 96%
    15:00 -1°C° 0.4 mm 5 mps 736 mmHg 94%
    16:00 -2°C° 0.4 mm 6 mps 736 mmHg 91%
    17:00 -2°C° 0.4 mm 7 mps 736 mmHg 89%
    18:00 -2°C° 0.2 mm 7 mps 736 mmHg 88%
    19:00 -3°C° 0.2 mm 7 mps 736 mmHg 87%
    20:00 -3°C° 0.2 mm 7 mps 737 mmHg 86%
    21:00 -3°C° 0.1 mm 7 mps 737 mmHg 86%
    22:00 -3°C° 0.1 mm 7 mps 737 mmHg 87%
    23:00 -3°C° 0.1 mm 7 mps 737 mmHg 88%
    Show more